| time (UTC) | temp C | wind direction | speed KPH | gust KPH | rain 1hr cm | rain 24hr cm | rain mn cm | humidity % | barometer mb |
| 20260506094042 | 29 | 168 | 1.6 | 1.6 | 0.00 | 0.00 | 0.00 | 997.7 | |
| 20260506085842 | 28 | 164 | 1.6 | 1.6 | 0.00 | 0.00 | 0.00 | 997.7 | |
| 20260506081642 | 27 | 162 | 1.6 | 3.2 | 0.00 | 0.00 | 0.00 | 997.7 | |
| 20260506073443 | 25 | 163 | 1.6 | 1.6 | 0.00 | 0.00 | 0.00 | 997.7 | |
| 20260506061042 | 20 | 174 | 3.2 | 3.2 | 0.00 | 0.00 | 0.00 | 100 | 997.5 |
| 20260506044643 | 10 | 192 | 4.8 | 4.8 | 0.00 | 0.00 | 0.00 | 22 | 996.7 |
| 20260506040442 | 4 | 170 | 4.8 | 4.8 | 0.00 | 0.00 | 0.00 | 28 | 996.7 |
| 20260506032242 | 3 | 169 | 4.8 | 4.8 | 0.00 | 0.00 | 0.00 | 29 | 996.7 |
| 20260506024043 | 3 | 169 | 4.8 | 4.8 | 0.00 | 0.00 | 0.00 | 29 | 995.9 |
| 20260506015842 | 4 | 170 | 4.8 | 4.8 | 0.00 | 0.00 | 0.00 | 28 | 995.7 |
| 20260506011642 | 4 | 170 | 4.8 | 4.8 | 0.00 | 0.00 | 0.00 | 26 | 995.7 |
| 20260506003443 | 5 | 171 | 4.8 | 4.8 | 0.00 | 0.00 | 0.00 | 24 | 995.4 |
| 20260505235242 | 5 | 170 | 4.8 | 4.8 | 0.00 | 0.00 | 0.00 | 23 | 994.8 |
| 20260505231042 | 6 | 170 | 3.2 | 4.8 | 0.00 | 0.00 | 0.00 | 19 | 994.7 |
| 20260505222842 | 6 | 174 | 4.8 | 4.8 | 0.00 | 0.00 | 0.00 | 24 | 994.7 |
| 20260505214642 | 7 | 196 | 4.8 | 6.4 | 0.00 | 0.00 | 0.00 | 22 | 994.7 |
| 20260505210442 | 8 | 205 | 4.8 | 4.8 | 0.00 | 0.00 | 0.00 | 22 | 993.0 |
| 20260505202242 | 9 | 182 | 4.8 | 4.8 | 0.00 | 0.00 | 0.00 | 18 | 992.7 |
| 20260505194042 | 10 | 184 | 4.8 | 4.8 | 0.00 | 0.00 | 0.00 | 12 | 992.7 |
| 20260505185842 | 11 | 189 | 4.8 | 4.8 | 0.00 | 0.00 | 0.00 | 991.7 | |
| 20260505181642 | 13 | 190 | 4.8 | 6.4 | 0.00 | 0.00 | 0.00 | 991.7 | |
| 20260505173443 | 16 | 195 | 3.2 | 4.8 | 0.00 | 0.00 | 0.00 | 990.9 | |
| 20260505165242 | 23 | 183 | 3.2 | 3.2 | 0.00 | 0.00 | 0.00 | 990.7 | |
| 20260505161042 | 24 | 181 | 3.2 | 3.2 | 0.00 | 0.00 | 0.00 | 990.7 | |
| 20260505152842 | 23 | 176 | 1.6 | 3.2 | 0.00 | 0.00 | 0.00 | 990.7 | |
| 20260505140442 | 29 | 220 | 1.6 | 9.7 | 0.00 | 0.00 | 0.00 | 990.7 | |
| 20260505124043 | 25 | 160 | 1.6 | 3.2 | 0.00 | 0.00 | 0.00 | 990.7 | |
| 20260505115842 | 28 | 171 | 1.6 | 4.8 | 0.00 | 0.00 | 0.00 | 990.6 | |
| 20260505111642 | 26 | 184 | 3.2 | 9.7 | 0.00 | 0.00 | 0.00 | 990.4 |